Location: Maiden
(35.5760°N, 81.2120°W)
Time: 17:36:28
(UTC-04:00)

SPOT 5 - Pass Details

Date: 14 June 2018
Orbit: 623 x 816 km, 98.4° (Epoch: 20 August)

Event Time Altitude Azimuth Distance (km) Brightness Sun altitude
Exits shadow 23:06:00 54° 179° (S) 879 2.9 -22.5°
Maximum altitude 23:07:07 82° 257° (WSW) 745 2.8 -22.7°
Drops below altitude 10° 23:12:12 10° 346° (NNW) 2,303 6.4 -23.2°
Sets 23:14:35 0° 347° (NNW) 3,260 7.5 -23.5°
